When you browse on this site, cookies collect data to enhance your experience and personalize the content and advertising you see.
Visit our Privacy Policy to learn more. By continuing to use the site, you agree to this use of cookies and data.
  • In Österreich
  • Länderverzeichnis
  • Für 7 Tage
  • Wassertemperatur
  • Wetterkarte
  • News
  • Widgets
  • user-avatar
    Anmelden

    Stündliche Wetter Linz

    Heute, 23 Februar, Sonntag

    Zeit Temperatur Niederschläge Wind Luftdruck Luftfeuchtigkeit
    00:00 +7°C° 0 mm 3 m/S 740 mmHg 67%
    01:00 +7°C° 0 mm 3 m/S 739 mmHg 71%
    02:00 +6°C° 0.7 mm 4 m/S 739 mmHg 76%
    03:00 +7°C° 0.7 mm 5 m/S 739 mmHg 81%
    04:00 +7°C° 0.7 mm 6 m/S 739 mmHg 85%
    05:00 +7°C° 0.9 mm 6 m/S 738 mmHg 85%
    06:00 +7°C° 0.9 mm 6 m/S 738 mmHg 84%
    07:00 +7°C° 0.9 mm 5 m/S 738 mmHg 83%
    08:00 +7°C° 0.8 mm 5 m/S 738 mmHg 84%
    09:00 +7°C° 0.8 mm 5 m/S 737 mmHg 85%
    10:00 +7°C° 0.8 mm 5 m/S 737 mmHg 86%
    11:00 +7°C° 0.6 mm 4 m/S 736 mmHg 86%
    12:00 +7°C° 0.6 mm 4 m/S 736 mmHg 86%
    13:00 +9°C° 0.6 mm 3 m/S 735 mmHg 86%
    14:00 +8°C° 0.2 mm 4 m/S 734 mmHg 84%
    15:00 +9°C° 0.2 mm 5 m/S 733 mmHg 82%
    16:00 +10°C° 0.2 mm 5 m/S 733 mmHg 80%
    17:00 +10°C° 0 mm 7 m/S 733 mmHg 78%
    18:00 +11°C° 0 mm 8 m/S 732 mmHg 76%
    19:00 +11°C° 0 mm 9 m/S 732 mmHg 74%
    20:00 +11°C° 0.1 mm 10 m/S 732 mmHg 72%
    21:00 +11°C° 0.1 mm 10 m/S 732 mmHg 71%
    22:00 +11°C° 0.1 mm 11 m/S 732 mmHg 70%
    23:00 +11°C° 0.4 mm 11 m/S 733 mmHg 72%

    Morgen, 24 Februar, Montag

    Zeit Temperatur Niederschläge Wind Luftdruck Luftfeuchtigkeit
    00:00 +11°C° 0.4 mm 11 m/S 733 mmHg 74%
    01:00 +9°C° 0.4 mm 11 m/S 734 mmHg 77%
    02:00 +8°C° 1 mm 10 m/S 735 mmHg 77%
    03:00 +6°C° 1 mm 8 m/S 736 mmHg 78%
    04:00 +4°C° 1 mm 7 m/S 736 mmHg 78%
    05:00 +3°C° 0.5 mm 6 m/S 737 mmHg 78%
    06:00 +3°C° 0.5 mm 5 m/S 738 mmHg 78%
    07:00 +2°C° 0.5 mm 5 m/S 738 mmHg 78%
    08:00 +2°C° 0.3 mm 5 m/S 738 mmHg 80%
    09:00 +2°C° 0.3 mm 5 m/S 738 mmHg 82%
    10:00 +2°C° 0.3 mm 5 m/S 738 mmHg 83%
    11:00 +3°C° 0.1 mm 4 m/S 738 mmHg 82%
    12:00 +4°C° 0.1 mm 3 m/S 738 mmHg 81%
    13:00 +4°C° 0.1 mm 3 m/S 737 mmHg 80%
    14:00 +5°C° 0 mm 2 m/S 736 mmHg 82%
    15:00 +6°C° 0 mm 1 m/S 736 mmHg 83%
    16:00 +6°C° 0 mm 1 m/S 735 mmHg 85%
    17:00 +6°C° 0 mm 1 m/S 734 mmHg 86%
    18:00 +5°C° 0 mm 1 m/S 733 mmHg 88%
    19:00 +5°C° 0 mm 1 m/S 733 mmHg 90%
    20:00 +5°C° 0 mm 1 m/S 732 mmHg 90%
    21:00 +5°C° 0 mm 1 m/S 732 mmHg 90%
    22:00 +5°C° 0 mm 1 m/S 731 mmHg 90%
    23:00 +5°C° 0 mm 1 m/S 731 mmHg 90%

    übermorgen, 25 Februar, Dienstag

    Zeit Temperatur Niederschläge Wind Luftdruck Luftfeuchtigkeit
    00:00 +5°C° 0 mm 1 m/S 730 mmHg 90%
    01:00 +5°C° 0 mm 1 m/S 729 mmHg 90%
    02:00 +5°C° 0 mm 1 m/S 729 mmHg 89%
    03:00 +5°C° 0 mm 1 m/S 728 mmHg 88%
    04:00 +5°C° 0 mm 1 m/S 728 mmHg 87%
    05:00 +5°C° 0 mm 1 m/S 728 mmHg 85%
    06:00 +5°C° 0 mm 2 m/S 728 mmHg 83%
    07:00 +5°C° 0 mm 2 m/S 727 mmHg 81%
    08:00 +7°C° 0 mm 2 m/S 727 mmHg 76%
    09:00 +8°C° 0 mm 3 m/S 727 mmHg 72%
    10:00 +10°C° 0 mm 3 m/S 727 mmHg 67%
    11:00 +10°C° 0 mm 4 m/S 726 mmHg 65%
    12:00 +10°C° 0 mm 5 m/S 726 mmHg 62%
    13:00 +10°C° 0 mm 5 m/S 725 mmHg 59%
    14:00 +10°C° 0.1 mm 5 m/S 725 mmHg 65%
    15:00 +9°C° 0.1 mm 5 m/S 724 mmHg 71%
    16:00 +9°C° 0.1 mm 5 m/S 724 mmHg 76%
    17:00 +8°C° 0.4 mm 5 m/S 724 mmHg 80%
    18:00 +7°C° 0.4 mm 5 m/S 724 mmHg 83%
    19:00 +7°C° 0.4 mm 5 m/S 724 mmHg 87%
    20:00 +6°C° 0.5 mm 4 m/S 724 mmHg 87%
    21:00 +5°C° 0.5 mm 4 m/S 724 mmHg 87%
    22:00 +4°C° 0.5 mm 3 m/S 724 mmHg 88%
    23:00 +4°C° 0.1 mm 3 m/S 724 mmHg 87%

    26 Februar, Mittwoch

    Zeit Temperatur Niederschläge Wind Luftdruck Luftfeuchtigkeit
    00:00 +3°C° 0.1 mm 3 m/S 723 mmHg 87%
    01:00 +4°C° 0.1 mm 2 m/S 723 mmHg 86%
    02:00 +3°C° 0.1 mm 3 m/S 723 mmHg 87%
    03:00 +3°C° 0.1 mm 3 m/S 722 mmHg 88%
    04:00 +3°C° 0.1 mm 4 m/S 722 mmHg 88%
    05:00 +2°C° 0 mm 3 m/S 721 mmHg 87%
    06:00 +3°C° 0 mm 2 m/S 720 mmHg 85%
    07:00 +4°C° 0 mm 1 m/S 720 mmHg 83%
    08:00 +2°C° 0.1 mm 3 m/S 720 mmHg 82%
    09:00 +3°C° 0.1 mm 4 m/S 720 mmHg 80%
    10:00 +2°C° 0.1 mm 5 m/S 719 mmHg 79%
    11:00 +2°C° 0.3 mm 5 m/S 720 mmHg 76%
    12:00 +2°C° 0.3 mm 6 m/S 720 mmHg 72%
    13:00 +2°C° 0.3 mm 6 m/S 721 mmHg 69%
    14:00 +2°C° 0.3 mm 6 m/S 721 mmHg 65%
    15:00 +2°C° 0.3 mm 6 m/S 721 mmHg 62%
    16:00 +2°C° 0.3 mm 6 m/S 721 mmHg 58%
    17:00 +1°C° 0 mm 6 m/S 722 mmHg 63%
    18:00 -1°C° 0 mm 6 m/S 722 mmHg 68%
    19:00 -2°C° 0 mm 6 m/S 723 mmHg 73%
    20:00 -1°C° 0 mm 5 m/S 723 mmHg 74%
    21:00 -1°C° 0 mm 5 m/S 724 mmHg 75%
    22:00 -2°C° 0 mm 5 m/S 724 mmHg 75%
    23:00 -2°C° 0.1 mm 5 m/S 725 mmHg 78%

    27 Februar, Donnerstag

    Zeit Temperatur Niederschläge Wind Luftdruck Luftfeuchtigkeit
    00:00 -2°C° 0.1 mm 6 m/S 725 mmHg 81%
    01:00 -2°C° 0.1 mm 6 m/S 726 mmHg 83%
    02:00 -2°C° 0.1 mm 6 m/S 726 mmHg 85%
    03:00 -1°C° 0.1 mm 5 m/S 726 mmHg 86%
    04:00 -1°C° 0.1 mm 5 m/S 727 mmHg 87%
    05:00 -1°C° 0.1 mm 5 m/S 727 mmHg 86%
    06:00 -2°C° 0.1 mm 6 m/S 728 mmHg 84%
    07:00 -2°C° 0.1 mm 7 m/S 729 mmHg 83%
    08:00 -2°C° 0.1 mm 7 m/S 729 mmHg 80%
    09:00 -1°C° 0.1 mm 7 m/S 730 mmHg 77%
    10:00 -1°C° 0.1 mm 7 m/S 730 mmHg 74%
    11:00 0°C° 0.1 mm 7 m/S 730 mmHg 70%
    12:00 +2°C° 0.1 mm 6 m/S 730 mmHg 66%
    13:00 +2°C° 0.1 mm 6 m/S 729 mmHg 63%
    14:00 +2°C° 0.1 mm 5 m/S 729 mmHg 61%
    15:00 +3°C° 0.1 mm 4 m/S 728 mmHg 60%
    16:00 +3°C° 0.1 mm 3 m/S 727 mmHg 58%
    17:00 +4°C° 0 mm 2 m/S 727 mmHg 63%
    18:00 +3°C° 0 mm 2 m/S 727 mmHg 67%
    19:00 +2°C° 0 mm 2 m/S 726 mmHg 72%
    20:00 +2°C° 0.1 mm 2 m/S 726 mmHg 76%
    21:00 +2°C° 0.1 mm 2 m/S 726 mmHg 80%
    22:00 +2°C° 0.1 mm 2 m/S 726 mmHg 84%
    23:00 +2°C° 0.3 mm 2 m/S 725 mmHg 86%

    28 Februar, Freitag

    Zeit Temperatur Niederschläge Wind Luftdruck Luftfeuchtigkeit
    00:00 +2°C° 0.3 mm 2 m/S 725 mmHg 89%
    01:00 +2°C° 0.3 mm 2 m/S 724 mmHg 91%
    02:00 +2°C° 0.4 mm 2 m/S 724 mmHg 90%
    03:00 +2°C° 0.4 mm 3 m/S 724 mmHg 88%
    04:00 +2°C° 0.4 mm 3 m/S 724 mmHg 87%
    05:00 +3°C° 0.2 mm 4 m/S 724 mmHg 85%
    06:00 +3°C° 0.2 mm 5 m/S 724 mmHg 84%
    07:00 +3°C° 0.2 mm 6 m/S 725 mmHg 82%
    08:00 +4°C° 0.1 mm 6 m/S 725 mmHg 81%
    09:00 +4°C° 0.1 mm 6 m/S 725 mmHg 79%
    10:00 +4°C° 0.1 mm 7 m/S 726 mmHg 77%
    11:00 +5°C° 0 mm 6 m/S 726 mmHg 75%
    12:00 +5°C° 0 mm 6 m/S 726 mmHg 73%
    13:00 +7°C° 0 mm 6 m/S 726 mmHg 71%
    14:00 +6°C° 0 mm 5 m/S 726 mmHg 74%
    15:00 +6°C° 0 mm 4 m/S 726 mmHg 77%
    16:00 +6°C° 0 mm 4 m/S 727 mmHg 79%
    17:00 +5°C° 0.4 mm 3 m/S 727 mmHg 85%
    18:00 +5°C° 0.4 mm 2 m/S 727 mmHg 90%
    19:00 +6°C° 0.4 mm 1 m/S 727 mmHg 95%
    20:00 +6°C° 0.3 mm 1 m/S 727 mmHg 95%
    21:00 +6°C° 0.3 mm 1 m/S 727 mmHg 95%
    22:00 +6°C° 0.3 mm 1 m/S 727 mmHg 95%
    23:00 +6°C° 0.1 mm 1 m/S 727 mmHg 95%
    Mehr zeigen